owner,sensor,date,latitude,longitude,air_temperature,qcFlag 
DISL,ioos:station:DISL:CATA:1,2014-06-01T00:00:00Z,30.3085,-88.1395,23.64,1111122 
DISL,ioos:station:DISL:CATA:1,2014-06-01T00:30:00Z,30.3085,-88.1395,23.64,1111122 
DISL,ioos:station:DISL:CATA:1,2014-06-01T01:00:00Z,30.3085,-88.1395,23.74,1111122 
DISL,ioos:station:DISL:CATA:1,2014-06-01T01:30:00Z,30.3085,-88.1395,24.08,1111122 
DISL,ioos:station:DISL:CATA:1,2014-06-01T02:00:00Z,30.3085,-88.1395,23.61,1111122 
DISL,ioos:station:DISL:CATA:1,2014-06-01T02:30:00Z,30.3085,-88.1395,23.4,1111122 
DISL,ioos:station:DISL:CATA:1,2014-06-01T03:00:00Z,30.3085,-88.1395,23.5,1111122 
DISL,ioos:station:DISL:CATA:1,2014-06-01T03:30:00Z,30.3085,-88.1395,23.54,1111122 
DISL,ioos:station:DISL:CATA:1,2014-06-01T04:00:00Z,30.3085,-88.1395,23.81,1111122 
DISL,ioos:station:DISL:CATA:1,2014-06-01T04:30:00Z,30.3085,-88.1395,23.71,1111122 
DISL,ioos:station:DISL:CATA:1,2014-06-01T05:00:00Z,30.3085,-88.1395,23.91,1111122 
DISL,ioos:station:DISL:CATA:1,2014-06-01T05:30:00Z,30.3085,-88.1395,24.32,1111122 
DISL,ioos:station:DISL:CATA:1,2014-06-01T06:30:00Z,30.3085,-88.1395,24.7,1111122 
DISL,ioos:station:DISL:CATA:1,2014-06-01T07:00:00Z,30.3085,-88.1395,25.21,1111122 
DISL,ioos:station:DISL:CATA:1,2014-06-01T07:30:00Z,30.3085,-88.1395,24.7,1111122 
DISL,ioos:station:DISL:CATA:1,2014-06-01T08:00:00Z,30.3085,-88.1395,24.7,1111122 
DISL,ioos:station:DISL:CATA:1,2014-06-01T08:30:00Z,30.3085,-88.1395,24.73,1111122 
DISL,ioos:station:DISL:CATA:1,2014-06-01T09:00:00Z,30.3085,-88.1395,24.49,1111122 
DISL,ioos:station:DISL:CATA:1,2014-06-01T09:30:00Z,30.3085,-88.1395,24.87,1111122 
DISL,ioos:station:DISL:CATA:1,2014-06-01T10:00:00Z,30.3085,-88.1395,24.87,1111122 
DISL,ioos:station:DISL:CATA:1,2014-06-01T10:30:00Z,30.3085,-88.1395,23.91,1111122 
DISL,ioos:station:DISL:CATA:1,2014-06-01T11:00:00Z,30.3085,-88.1395,23.78,1111122 
DISL,ioos:station:DISL:CATA:1,2014-06-01T11:30:00Z,30.3085,-88.1395,23.61,1111122 
DISL,ioos:station:DISL:CATA:1,2014-06-01T12:00:00Z,30.3085,-88.1395,23.67,1111122 
DISL,ioos:station:DISL:CATA:1,2014-06-01T12:30:00Z,30.3085,-88.1395,23.54,1111122 
DISL,ioos:station:DISL:CATA:1,2014-06-01T13:00:00Z,30.3085,-88.1395,23.64,1111122 
DISL,ioos:station:DISL:CATA:1,2014-06-01T13:30:00Z,30.3085,-88.1395,24.53,1111122 
DISL,ioos:station:DISL:CATA:1,2014-06-01T14:00:00Z,30.3085,-88.1395,24.31,1111122 
DISL,ioos:station:DISL:CATA:1,2014-06-01T14:30:00Z,30.3085,-88.1395,24.93,1111122 
DISL,ioos:station:DISL:CATA:1,2014-06-01T15:00:00Z,30.3085,-88.1395,25.3,1111122 
DISL,ioos:station:DISL:CATA:1,2014-06-01T15:30:00Z,30.3085,-88.1395,25.64,1111122 
DISL,ioos:station:DISL:CATA:1,2014-06-01T16:00:00Z,30.3085,-88.1395,25.16,1111122 
DISL,ioos:station:DISL:CATA:1,2014-06-01T16:30:00Z,30.3085,-88.1395,25.95,1111122 
DISL,ioos:station:DISL:CATA:1,2014-06-01T17:00:00Z,30.3085,-88.1395,26.12,1111122 
DISL,ioos:station:DISL:CATA:1,2014-06-01T17:30:00Z,30.3085,-88.1395,26.19,1111122 
DISL,ioos:station:DISL:CATA:1,2014-06-01T18:00:00Z,30.3085,-88.1395,25.95,1111122 
DISL,ioos:station:DISL:CATA:1,2014-06-01T18:30:00Z,30.3085,-88.1395,26.39,1111122 
DISL,ioos:station:DISL:CATA:1,2014-06-01T19:00:00Z,30.3085,-88.1395,26.29,1111122 
DISL,ioos:station:DISL:CATA:1,2014-06-01T19:30:00Z,30.3085,-88.1395,26.5,1111122 
DISL,ioos:station:DISL:CATA:1,2014-06-01T20:00:00Z,30.3085,-88.1395,26.22,1111122 
DISL,ioos:station:DISL:CATA:1,2014-06-01T20:30:00Z,30.3085,-88.1395,26.39,1111122 
DISL,ioos:station:DISL:CATA:1,2014-06-01T21:00:00Z,30.3085,-88.1395,26.15,1111122 
DISL,ioos:station:DISL:CATA:1,2014-06-01T21:30:00Z,30.3085,-88.1395,25.81,1111122 
DISL,ioos:station:DISL:CATA:1,2014-06-01T22:00:00Z,30.3085,-88.1395,25.81,1111122 
DISL,ioos:station:DISL:CATA:1,2014-06-01T22:30:00Z,30.3085,-88.1395,26.13,1111122 
DISL,ioos:station:DISL:CATA:1,2014-06-01T23:00:00Z,30.3085,-88.1395,25.72,1111122 
DISL,ioos:station:DISL:CATA:1,2014-06-01T23:30:00Z,30.3085,-88.1395,25.75,1111122 
DISL,ioos:station:DISL:CATA:1,2014-06-02T00:00:00Z,30.3085,-88.1395,25.68,1111122 
DISL,ioos:station:DISL:CATA:1,2014-06-02T00:30:00Z,30.3085,-88.1395,25.62,1111122 
DISL,ioos:station:DISL:CATA:1,2014-06-02T01:00:00Z,30.3085,-88.1395,25.41,1111122 
DISL,ioos:station:DISL:CATA:1,2014-06-02T01:30:00Z,30.3085,-88.1395,25.58,1111122 
DISL,ioos:station:DISL:CATA:1,2014-06-02T02:00:00Z,30.3085,-88.1395,25.48,1111122 
DISL,ioos:station:DISL:CATA:1,2014-06-02T02:30:00Z,30.3085,-88.1395,25.58,1111122 
DISL,ioos:station:DISL:CATA:1,2014-06-02T03:00:00Z,30.3085,-88.1395,25.27,1111122 
DISL,ioos:station:DISL:CATA:1,2014-06-02T03:30:00Z,30.3085,-88.1395,25.58,1111122 
DISL,ioos:station:DISL:CATA:1,2014-06-02T04:00:00Z,30.3085,-88.1395,25.41,1111122 
DISL,ioos:station:DISL:CATA:1,2014-06-02T04:30:00Z,30.3085,-88.1395,25.17,1111122 
DISL,ioos:station:DISL:CATA:1,2014-06-02T05:00:00Z,30.3085,-88.1395,25.31,1111122 
DISL,ioos:station:DISL:CATA:1,2014-06-02T05:30:00Z,30.3085,-88.1395,25.03,1111122 
DISL,ioos:station:DISL:CATA:1,2014-06-02T06:30:00Z,30.3085,-88.1395,25.45,1111122 
DISL,ioos:station:DISL:CATA:1,2014-06-02T07:00:00Z,30.3085,-88.1395,25.45,1111122 
DISL,ioos:station:DISL:CATA:1,2014-06-02T07:30:00Z,30.3085,-88.1395,24.76,1111122 
DISL,ioos:station:DISL:CATA:1,2014-06-02T08:00:00Z,30.3085,-88.1395,25.03,1111122 
DISL,ioos:station:DISL:CATA:1,2014-06-02T08:30:00Z,30.3085,-88.1395,25.14,1111122 
DISL,ioos:station:DISL:CATA:1,2014-06-02T09:00:00Z,30.3085,-88.1395,24.93,1111122 
DISL,ioos:station:DISL:CATA:1,2014-06-02T09:30:00Z,30.3085,-88.1395,24.73,1111122 
DISL,ioos:station:DISL:CATA:1,2014-06-02T10:00:00Z,30.3085,-88.1395,24.43,1111122 
DISL,ioos:station:DISL:CATA:1,2014-06-02T10:30:00Z,30.3085,-88.1395,23.74,1111122 
DISL,ioos:station:DISL:CATA:1,2014-06-02T11:00:00Z,30.3085,-88.1395,23.74,1111122 
DISL,ioos:station:DISL:CATA:1,2014-06-02T11:30:00Z,30.3085,-88.1395,23.64,1111122 
DISL,ioos:station:DISL:CATA:1,2014-06-02T12:00:00Z,30.3085,-88.1395,23.26,1111122 
DISL,ioos:station:DISL:CATA:1,2014-06-02T12:30:00Z,30.3085,-88.1395,22.89,1111122 
DISL,ioos:station:DISL:CATA:1,2014-06-02T13:00:00Z,30.3085,-88.1395,23.3,1111122 
DISL,ioos:station:DISL:CATA:1,2014-06-02T13:30:00Z,30.3085,-88.1395,23.47,1111122 
DISL,ioos:station:DISL:CATA:1,2014-06-02T14:00:00Z,30.3085,-88.1395,23.26,1111122 
DISL,ioos:station:DISL:CATA:1,2014-06-02T14:30:00Z,30.3085,-88.1395,23.64,1111122 
DISL,ioos:station:DISL:CATA:1,2014-06-02T15:00:00Z,30.3085,-88.1395,23.94,1111122 
DISL,ioos:station:DISL:CATA:1,2014-06-02T15:30:00Z,30.3085,-88.1395,24.01,1111122 
DISL,ioos:station:DISL:CATA:1,2014-06-02T16:00:00Z,30.3085,-88.1395,24.38,1111122 
DISL,ioos:station:DISL:CATA:1,2014-06-02T16:30:00Z,30.3085,-88.1395,24.45,1111122 
DISL,ioos:station:DISL:CATA:1,2014-06-02T17:00:00Z,30.3085,-88.1395,24.82,1111122 
DISL,ioos:station:DISL:CATA:1,2014-06-02T17:30:00Z,30.3085,-88.1395,24.72,1111122 
DISL,ioos:station:DISL:CATA:1,2014-06-02T18:00:00Z,30.3085,-88.1395,25.23,1111122 
DISL,ioos:station:DISL:CATA:1,2014-06-02T18:30:00Z,30.3085,-88.1395,25.47,1111122 
DISL,ioos:station:DISL:CATA:1,2014-06-02T19:00:00Z,30.3085,-88.1395,24.68,1111122 
DISL,ioos:station:DISL:CATA:1,2014-06-02T19:30:00Z,30.3085,-88.1395,25.47,1111122 
DISL,ioos:station:DISL:CATA:1,2014-06-02T20:00:00Z,30.3085,-88.1395,25.54,1111122 
DISL,ioos:station:DISL:CATA:1,2014-06-02T20:30:00Z,30.3085,-88.1395,25.26,1111122 
DISL,ioos:station:DISL:CATA:1,2014-06-02T21:00:00Z,30.3085,-88.1395,24.58,1111122 
DISL,ioos:station:DISL:CATA:1,2014-06-02T21:30:00Z,30.3085,-88.1395,25.27,1111122 
DISL,ioos:station:DISL:CATA:1,2014-06-02T22:00:00Z,30.3085,-88.1395,25.62,1111122 
DISL,ioos:station:DISL:CATA:1,2014-06-02T22:30:00Z,30.3085,-88.1395,25.48,1111122 
DISL,ioos:station:DISL:CATA:1,2014-06-02T23:00:00Z,30.3085,-88.1395,25.34,1111122 
DISL,ioos:station:DISL:CATA:1,2014-06-02T23:30:00Z,30.3085,-88.1395,25.24,1111122 
DISL,ioos:station:DISL:CATA:1,2014-06-03T00:00:00Z,30.3085,-88.1395,25.34,1111122 
DISL,ioos:station:DISL:CATA:1,2014-06-03T00:30:00Z,30.3085,-88.1395,25.07,1111122 
DISL,ioos:station:DISL:CATA:1,2014-06-03T01:00:00Z,30.3085,-88.1395,24.87,1111122 
DISL,ioos:station:DISL:CATA:1,2014-06-03T01:30:00Z,30.3085,-88.1395,24.84,1111122 
DISL,ioos:station:DISL:CATA:1,2014-06-03T02:00:00Z,30.3085,-88.1395,25.04,1111122 
DISL,ioos:station:DISL:CATA:1,2014-06-03T02:30:00Z,30.3085,-88.1395,24.83,1111122 
DISL,ioos:station:DISL:CATA:1,2014-06-03T03:00:00Z,30.3085,-88.1395,24.9,1111122 
DISL,ioos:station:DISL:CATA:1,2014-06-03T03:30:00Z,30.3085,-88.1395,24.97,1111122 
DISL,ioos:station:DISL:CATA:1,2014-06-03T04:00:00Z,30.3085,-88.1395,24.56,1111122 
DISL,ioos:station:DISL:CATA:1,2014-06-03T04:30:00Z,30.3085,-88.1395,24.77,1111122 
DISL,ioos:station:DISL:CATA:1,2014-06-03T05:00:00Z,30.3085,-88.1395,24.53,1111122 
DISL,ioos:station:DISL:CATA:1,2014-06-03T05:30:00Z,30.3085,-88.1395,24.15,1111122 
DISL,ioos:station:DISL:CATA:1,2014-06-03T06:30:00Z,30.3085,-88.1395,24.32,1111122 
DISL,ioos:station:DISL:CATA:1,2014-06-03T07:00:00Z,30.3085,-88.1395,23.95,1111122 
DISL,ioos:station:DISL:CATA:1,2014-06-03T07:30:00Z,30.3085,-88.1395,23.23,1111122 
DISL,ioos:station:DISL:CATA:1,2014-06-03T08:00:00Z,30.3085,-88.1395,23.26,1111122 
DISL,ioos:station:DISL:CATA:1,2014-06-03T08:30:00Z,30.3085,-88.1395,23.19,1111122 
DISL,ioos:station:DISL:CATA:1,2014-06-03T09:00:00Z,30.3085,-88.1395,23.33,1111122 
DISL,ioos:station:DISL:CATA:1,2014-06-03T09:30:00Z,30.3085,-88.1395,23.57,1111122 
DISL,ioos:station:DISL:CATA:1,2014-06-03T10:00:00Z,30.3085,-88.1395,23.57,1111122 
DISL,ioos:station:DISL:CATA:1,2014-06-03T10:30:00Z,30.3085,-88.1395,23.5,1111122 
DISL,ioos:station:DISL:CATA:1,2014-06-03T11:00:00Z,30.3085,-88.1395,22.75,1111122 
DISL,ioos:station:DISL:CATA:1,2014-06-03T11:30:00Z,30.3085,-88.1395,23.09,1111122 
DISL,ioos:station:DISL:CATA:1,2014-06-03T12:00:00Z,30.3085,-88.1395,23.09,1111122 
DISL,ioos:station:DISL:CATA:1,2014-06-03T12:30:00Z,30.3085,-88.1395,23.43,1111122 
DISL,ioos:station:DISL:CATA:1,2014-06-03T13:00:00Z,30.3085,-88.1395,23.23,1111122 
DISL,ioos:station:DISL:CATA:1,2014-06-03T13:30:00Z,30.3085,-88.1395,23.37,1111122 
DISL,ioos:station:DISL:CATA:1,2014-06-03T14:00:00Z,30.3085,-88.1395,23.09,1111122 
DISL,ioos:station:DISL:CATA:1,2014-06-03T14:30:00Z,30.3085,-88.1395,23.26,1111122 
DISL,ioos:station:DISL:CATA:1,2014-06-03T15:00:00Z,30.3085,-88.1395,23.13,1111122 
DISL,ioos:station:DISL:CATA:1,2014-06-03T15:30:00Z,30.3085,-88.1395,23.57,1111122 
DISL,ioos:station:DISL:CATA:1,2014-06-03T16:00:00Z,30.3085,-88.1395,23.37,1111122 
DISL,ioos:station:DISL:CATA:1,2014-06-03T16:30:00Z,30.3085,-88.1395,23.3,1111122 
DISL,ioos:station:DISL:CATA:1,2014-06-03T17:00:00Z,30.3085,-88.1395,23.43,1111122 
DISL,ioos:station:DISL:CATA:1,2014-06-03T17:30:00Z,30.3085,-88.1395,23.23,1111122 
DISL,ioos:station:DISL:CATA:1,2014-06-03T18:00:00Z,30.3085,-88.1395,23.19,1111122 
DISL,ioos:station:DISL:CATA:1,2014-06-03T18:30:00Z,30.3085,-88.1395,23.71,1111122 
DISL,ioos:station:DISL:CATA:1,2014-06-03T19:00:00Z,30.3085,-88.1395,24.08,1111122 
DISL,ioos:station:DISL:CATA:1,2014-06-03T19:30:00Z,30.3085,-88.1395,24.15,1111122 
DISL,ioos:station:DISL:CATA:1,2014-06-03T20:00:00Z,30.3085,-88.1395,24.32,1111122 
DISL,ioos:station:DISL:CATA:1,2014-06-03T20:30:00Z,30.3085,-88.1395,24.12,1111122 
DISL,ioos:station:DISL:CATA:1,2014-06-03T21:00:00Z,30.3085,-88.1395,25.01,1111122 
DISL,ioos:station:DISL:CATA:1,2014-06-03T21:30:00Z,30.3085,-88.1395,24.77,1111122 
DISL,ioos:station:DISL:CATA:1,2014-06-03T22:00:00Z,30.3085,-88.1395,25.63,1111122 
DISL,ioos:station:DISL:CATA:1,2014-06-03T22:30:00Z,30.3085,-88.1395,25.72,1111122 
DISL,ioos:station:DISL:CATA:1,2014-06-03T23:00:00Z,30.3085,-88.1395,26.06,1111122 
DISL,ioos:station:DISL:CATA:1,2014-06-03T23:30:00Z,30.3085,-88.1395,26.23,1111122 
DISL,ioos:station:DISL:CATA:1,2014-06-04T00:00:00Z,30.3085,-88.1395,25.85,1111122 
DISL,ioos:station:DISL:CATA:1,2014-06-04T00:30:00Z,30.3085,-88.1395,25.31,1111122 
DISL,ioos:station:DISL:CATA:1,2014-06-04T01:00:00Z,30.3085,-88.1395,24.97,1111122 
DISL,ioos:station:DISL:CATA:1,2014-06-04T01:30:00Z,30.3085,-88.1395,24.6,1111122 
DISL,ioos:station:DISL:CATA:1,2014-06-04T02:00:00Z,30.3085,-88.1395,24.66,1111122 
DISL,ioos:station:DISL:CATA:1,2014-06-04T02:30:00Z,30.3085,-88.1395,24.5,1111122 
DISL,ioos:station:DISL:CATA:1,2014-06-04T03:00:00Z,30.3085,-88.1395,24.49,1111122 
DISL,ioos:station:DISL:CATA:1,2014-06-04T03:30:00Z,30.3085,-88.1395,24.63,1111122 
DISL,ioos:station:DISL:CATA:1,2014-06-04T04:00:00Z,30.3085,-88.1395,24.67,1111122 
DISL,ioos:station:DISL:CATA:1,2014-06-04T04:30:00Z,30.3085,-88.1395,24.5,1111122 
DISL,ioos:station:DISL:CATA:1,2014-06-04T05:00:00Z,30.3085,-88.1395,24.43,1111122 
DISL,ioos:station:DISL:CATA:1,2014-06-04T05:30:00Z,30.3085,-88.1395,24.32,1111122 
DISL,ioos:station:DISL:CATA:1,2014-06-04T06:30:00Z,30.3085,-88.1395,24.19,1111122 
DISL,ioos:station:DISL:CATA:1,2014-06-04T07:00:00Z,30.3085,-88.1395,24.29,1111122 
DISL,ioos:station:DISL:CATA:1,2014-06-04T07:30:00Z,30.3085,-88.1395,24.46,1111122 
DISL,ioos:station:DISL:CATA:1,2014-06-04T08:00:00Z,30.3085,-88.1395,24.22,1111122 
DISL,ioos:station:DISL:CATA:1,2014-06-04T08:30:00Z,30.3085,-88.1395,24.56,1111122 
DISL,ioos:station:DISL:CATA:1,2014-06-04T09:00:00Z,30.3085,-88.1395,24.19,1111122 
DISL,ioos:station:DISL:CATA:1,2014-06-04T09:30:00Z,30.3085,-88.1395,24.05,1111122 
DISL,ioos:station:DISL:CATA:1,2014-06-04T10:00:00Z,30.3085,-88.1395,24.32,1111122 
DISL,ioos:station:DISL:CATA:1,2014-06-04T10:30:00Z,30.3085,-88.1395,24.19,1111122 
DISL,ioos:station:DISL:CATA:1,2014-06-04T11:00:00Z,30.3085,-88.1395,24.05,1111122 
DISL,ioos:station:DISL:CATA:1,2014-06-04T11:30:00Z,30.3085,-88.1395,24.63,1111122 
DISL,ioos:station:DISL:CATA:1,2014-06-04T12:00:00Z,30.3085,-88.1395,24.7,1111122 
DISL,ioos:station:DISL:CATA:1,2014-06-04T12:30:00Z,30.3085,-88.1395,24.59,1111122 
DISL,ioos:station:DISL:CATA:1,2014-06-04T13:00:00Z,30.3085,-88.1395,24.76,1111122 
DISL,ioos:station:DISL:CATA:1,2014-06-04T13:30:00Z,30.3085,-88.1395,24.34,1111122 
DISL,ioos:station:DISL:CATA:1,2014-06-04T14:00:00Z,30.3085,-88.1395,24.99,1111122 
DISL,ioos:station:DISL:CATA:1,2014-06-04T14:30:00Z,30.3085,-88.1395,25.13,1111122 
DISL,ioos:station:DISL:CATA:1,2014-06-04T15:00:00Z,30.3085,-88.1395,25.3,1111122 
DISL,ioos:station:DISL:CATA:1,2014-06-04T15:30:00Z,30.3085,-88.1395,25.84,1111122 
DISL,ioos:station:DISL:CATA:1,2014-06-04T16:00:00Z,30.3085,-88.1395,25.81,1111122 
DISL,ioos:station:DISL:CATA:1,2014-06-04T16:30:00Z,30.3085,-88.1395,25.54,1111122 
DISL,ioos:station:DISL:CATA:1,2014-06-04T17:00:00Z,30.3085,-88.1395,25.64,1111122 
DISL,ioos:station:DISL:CATA:1,2014-06-04T17:30:00Z,30.3085,-88.1395,25.64,1111122 
DISL,ioos:station:DISL:CATA:1,2014-06-04T18:00:00Z,30.3085,-88.1395,25.71,1111122 
DISL,ioos:station:DISL:CATA:1,2014-06-04T18:30:00Z,30.3085,-88.1395,25.95,1111122 
DISL,ioos:station:DISL:CATA:1,2014-06-04T19:00:00Z,30.3085,-88.1395,26.12,1111122 
DISL,ioos:station:DISL:CATA:1,2014-06-04T19:30:00Z,30.3085,-88.1395,26.26,1111122 
DISL,ioos:station:DISL:CATA:1,2014-06-04T20:00:00Z,30.3085,-88.1395,26.08,1111122 
DISL,ioos:station:DISL:CATA:1,2014-06-04T20:30:00Z,30.3085,-88.1395,26.39,1111122 
DISL,ioos:station:DISL:CATA:1,2014-06-04T21:00:00Z,30.3085,-88.1395,26.63,1111122 
DISL,ioos:station:DISL:CATA:1,2014-06-04T21:30:00Z,30.3085,-88.1395,26.8,1111122 
DISL,ioos:station:DISL:CATA:1,2014-06-04T22:00:00Z,30.3085,-88.1395,26.84,1111122 
DISL,ioos:station:DISL:CATA:1,2014-06-04T22:30:00Z,30.3085,-88.1395,26.36,1111122 
DISL,ioos:station:DISL:CATA:1,2014-06-04T23:00:00Z,30.3085,-88.1395,26.26,1111122 
DISL,ioos:station:DISL:CATA:1,2014-06-04T23:30:00Z,30.3085,-88.1395,26.53,1111122 
DISL,ioos:station:DISL:CATA:1,2014-06-05T00:00:00Z,30.3085,-88.1395,26.36,1111122 
DISL,ioos:station:DISL:CATA:1,2014-06-05T00:30:00Z,30.3085,-88.1395,25.68,1111122 
DISL,ioos:station:DISL:CATA:1,2014-06-05T01:00:00Z,30.3085,-88.1395,25.17,1111122 
DISL,ioos:station:DISL:CATA:1,2014-06-05T01:30:00Z,30.3085,-88.1395,25.1,1111122 
DISL,ioos:station:DISL:CATA:1,2014-06-05T02:00:00Z,30.3085,-88.1395,25.0,1111122 
DISL,ioos:station:DISL:CATA:1,2014-06-05T02:30:00Z,30.3085,-88.1395,25.28,1111122 
DISL,ioos:station:DISL:CATA:1,2014-06-05T03:00:00Z,30.3085,-88.1395,25.38,1111122 
DISL,ioos:station:DISL:CATA:1,2014-06-05T03:30:00Z,30.3085,-88.1395,25.21,1111122 
DISL,ioos:station:DISL:CATA:1,2014-06-05T04:00:00Z,30.3085,-88.1395,25.01,1111122 
DISL,ioos:station:DISL:CATA:1,2014-06-05T04:30:00Z,30.3085,-88.1395,25.25,1111122 
DISL,ioos:station:DISL:CATA:1,2014-06-05T05:00:00Z,30.3085,-88.1395,25.04,1111122 
DISL,ioos:station:DISL:CATA:1,2014-06-05T05:30:00Z,30.3085,-88.1395,25.07,1111122 
DISL,ioos:station:DISL:CATA:1,2014-06-05T06:30:00Z,30.3085,-88.1395,25.17,1111122 
DISL,ioos:station:DISL:CATA:1,2014-06-05T07:00:00Z,30.3085,-88.1395,25.07,1111122 
DISL,ioos:station:DISL:CATA:1,2014-06-05T07:30:00Z,30.3085,-88.1395,24.94,1111122 
DISL,ioos:station:DISL:CATA:1,2014-06-05T08:00:00Z,30.3085,-88.1395,24.77,1111122 
DISL,ioos:station:DISL:CATA:1,2014-06-05T08:30:00Z,30.3085,-88.1395,24.97,1111122 
DISL,ioos:station:DISL:CATA:1,2014-06-05T09:00:00Z,30.3085,-88.1395,24.36,1111122 
DISL,ioos:station:DISL:CATA:1,2014-06-05T09:30:00Z,30.3085,-88.1395,24.7,1111122 
DISL,ioos:station:DISL:CATA:1,2014-06-05T10:00:00Z,30.3085,-88.1395,24.77,1111122 
DISL,ioos:station:DISL:CATA:1,2014-06-05T10:30:00Z,30.3085,-88.1395,24.91,1111122 
DISL,ioos:station:DISL:CATA:1,2014-06-05T11:00:00Z,30.3085,-88.1395,24.56,1111122 
DISL,ioos:station:DISL:CATA:1,2014-06-05T11:30:00Z,30.3085,-88.1395,25.28,1111122 
DISL,ioos:station:DISL:CATA:1,2014-06-05T12:00:00Z,30.3085,-88.1395,25.96,1111122 
DISL,ioos:station:DISL:CATA:1,2014-06-05T12:30:00Z,30.3085,-88.1395,26.34,1111122 
DISL,ioos:station:DISL:CATA:1,2014-06-05T13:00:00Z,30.3085,-88.1395,26.46,1111122 
DISL,ioos:station:DISL:CATA:1,2014-06-05T13:30:00Z,30.3085,-88.1395,26.5,1111122 
DISL,ioos:station:DISL:CATA:1,2014-06-05T14:00:00Z,30.3085,-88.1395,26.26,1111122 
DISL,ioos:station:DISL:CATA:1,2014-06-05T14:30:00Z,30.3085,-88.1395,26.5,1111122 
DISL,ioos:station:DISL:CATA:1,2014-06-05T15:00:00Z,30.3085,-88.1395,26.35,1111122 
DISL,ioos:station:DISL:CATA:1,2014-06-05T15:30:00Z,30.3085,-88.1395,26.17,1111122 
DISL,ioos:station:DISL:CATA:1,2014-06-05T16:00:00Z,30.3085,-88.1395,25.94,1111122 
DISL,ioos:station:DISL:CATA:1,2014-06-05T16:30:00Z,30.3085,-88.1395,26.39,1111122 
DISL,ioos:station:DISL:CATA:1,2014-06-05T17:00:00Z,30.3085,-88.1395,26.39,1111122 
DISL,ioos:station:DISL:CATA:1,2014-06-05T17:30:00Z,30.3085,-88.1395,26.05,1111122 
DISL,ioos:station:DISL:CATA:1,2014-06-05T18:00:00Z,30.3085,-88.1395,26.5,1111122 
DISL,ioos:station:DISL:CATA:1,2014-06-05T18:30:00Z,30.3085,-88.1395,26.26,1111122 
DISL,ioos:station:DISL:CATA:1,2014-06-05T19:00:00Z,30.3085,-88.1395,26.05,1111122 
DISL,ioos:station:DISL:CATA:1,2014-06-05T19:30:00Z,30.3085,-88.1395,26.05,1111122 
DISL,ioos:station:DISL:CATA:1,2014-06-05T20:00:00Z,30.3085,-88.1395,26.02,1111122 
DISL,ioos:station:DISL:CATA:1,2014-06-05T20:30:00Z,30.3085,-88.1395,26.22,1111122 
DISL,ioos:station:DISL:CATA:1,2014-06-05T21:00:00Z,30.3085,-88.1395,26.32,1111122 
DISL,ioos:station:DISL:CATA:1,2014-06-05T21:30:00Z,30.3085,-88.1395,26.19,1111122 
DISL,ioos:station:DISL:CATA:1,2014-06-05T22:00:00Z,30.3085,-88.1395,26.39,1111122 
DISL,ioos:station:DISL:CATA:1,2014-06-05T22:30:00Z,30.3085,-88.1395,26.15,1111122 
DISL,ioos:station:DISL:CATA:1,2014-06-05T23:00:00Z,30.3085,-88.1395,26.5,1111122 
DISL,ioos:station:DISL:CATA:1,2014-06-05T23:30:00Z,30.3085,-88.1395,26.46,1111122 
DISL,ioos:station:DISL:CATA:1,2014-06-06T00:00:00Z,30.3085,-88.1395,26.87,1111122 
DISL,ioos:station:DISL:CATA:1,2014-06-06T00:30:00Z,30.3085,-88.1395,26.67,1111122 
DISL,ioos:station:DISL:CATA:1,2014-06-06T01:00:00Z,30.3085,-88.1395,25.88,1111122 
DISL,ioos:station:DISL:CATA:1,2014-06-06T01:30:00Z,30.3085,-88.1395,26.13,1111122 
DISL,ioos:station:DISL:CATA:1,2014-06-06T02:00:00Z,30.3085,-88.1395,25.96,1111122 
DISL,ioos:station:DISL:CATA:1,2014-06-06T02:30:00Z,30.3085,-88.1395,25.82,1111122 
DISL,ioos:station:DISL:CATA:1,2014-06-06T03:00:00Z,30.3085,-88.1395,26.06,1111122 
DISL,ioos:station:DISL:CATA:1,2014-06-06T03:30:00Z,30.3085,-88.1395,26.13,1111122 
DISL,ioos:station:DISL:CATA:1,2014-06-06T04:00:00Z,30.3085,-88.1395,26.03,1111122 
DISL,ioos:station:DISL:CATA:1,2014-06-06T04:30:00Z,30.3085,-88.1395,25.96,1111122 
DISL,ioos:station:DISL:CATA:1,2014-06-06T05:00:00Z,30.3085,-88.1395,25.92,1111122 
DISL,ioos:station:DISL:CATA:1,2014-06-06T05:30:00Z,30.3085,-88.1395,25.82,1111122 
DISL,ioos:station:DISL:CATA:1,2014-06-06T06:30:00Z,30.3085,-88.1395,25.48,1111122 
DISL,ioos:station:DISL:CATA:1,2014-06-06T07:00:00Z,30.3085,-88.1395,25.55,1111122 
DISL,ioos:station:DISL:CATA:1,2014-06-06T07:30:00Z,30.3085,-88.1395,25.45,1111122 
DISL,ioos:station:DISL:CATA:1,2014-06-06T08:00:00Z,30.3085,-88.1395,25.93,1111122 
DISL,ioos:station:DISL:CATA:1,2014-06-06T08:30:00Z,30.3085,-88.1395,25.79,1111122 
DISL,ioos:station:DISL:CATA:1,2014-06-06T09:00:00Z,30.3085,-88.1395,25.99,1111122 
DISL,ioos:station:DISL:CATA:1,2014-06-06T09:30:00Z,30.3085,-88.1395,25.72,1111122 
DISL,ioos:station:DISL:CATA:1,2014-06-06T10:00:00Z,30.3085,-88.1395,25.58,1111122 
DISL,ioos:station:DISL:CATA:1,2014-06-06T10:30:00Z,30.3085,-88.1395,26.03,1111122 
DISL,ioos:station:DISL:CATA:1,2014-06-06T11:00:00Z,30.3085,-88.1395,25.17,1111122 
DISL,ioos:station:DISL:CATA:1,2014-06-06T11:30:00Z,30.3085,-88.1395,24.83,1111122 
DISL,ioos:station:DISL:CATA:1,2014-06-06T12:00:00Z,30.3085,-88.1395,24.83,1111122 
DISL,ioos:station:DISL:CATA:1,2014-06-06T12:30:00Z,30.3085,-88.1395,25.62,1111122 
DISL,ioos:station:DISL:CATA:1,2014-06-06T13:00:00Z,30.3085,-88.1395,26.22,1111122 
DISL,ioos:station:DISL:CATA:1,2014-06-06T13:30:00Z,30.3085,-88.1395,27.28,1111122 
DISL,ioos:station:DISL:CATA:1,2014-06-06T14:00:00Z,30.3085,-88.1395,26.79,1111122 
DISL,ioos:station:DISL:CATA:1,2014-06-06T14:30:00Z,30.3085,-88.1395,28.66,1111122 
DISL,ioos:station:DISL:CATA:1,2014-06-06T15:00:00Z,30.3085,-88.1395,28.53,1111122 
DISL,ioos:station:DISL:CATA:1,2014-06-06T15:30:00Z,30.3085,-88.1395,27.6,1111122 
DISL,ioos:station:DISL:CATA:1,2014-06-06T16:00:00Z,30.3085,-88.1395,27.77,1111122 
DISL,ioos:station:DISL:CATA:1,2014-06-06T16:30:00Z,30.3085,-88.1395,26.92,1111122 
DISL,ioos:station:DISL:CATA:1,2014-06-06T17:00:00Z,30.3085,-88.1395,27.23,1111122 
DISL,ioos:station:DISL:CATA:1,2014-06-06T17:30:00Z,30.3085,-88.1395,26.95,1111122 
DISL,ioos:station:DISL:CATA:1,2014-06-06T18:00:00Z,30.3085,-88.1395,26.96,1111122 
DISL,ioos:station:DISL:CATA:1,2014-06-06T18:30:00Z,30.3085,-88.1395,26.86,1111122 
DISL,ioos:station:DISL:CATA:1,2014-06-06T19:00:00Z,30.3085,-88.1395,27.3,1111122 
DISL,ioos:station:DISL:CATA:1,2014-06-06T19:30:00Z,30.3085,-88.1395,27.37,1111122 
DISL,ioos:station:DISL:CATA:1,2014-06-06T20:00:00Z,30.3085,-88.1395,27.65,1111122 
DISL,ioos:station:DISL:CATA:1,2014-06-06T20:30:00Z,30.3085,-88.1395,27.68,1111122 
DISL,ioos:station:DISL:CATA:1,2014-06-06T21:00:00Z,30.3085,-88.1395,27.72,1111122 
DISL,ioos:station:DISL:CATA:1,2014-06-06T21:30:00Z,30.3085,-88.1395,27.59,1111122 
DISL,ioos:station:DISL:CATA:1,2014-06-06T22:00:00Z,30.3085,-88.1395,27.08,1111122 
DISL,ioos:station:DISL:CATA:1,2014-06-06T22:30:00Z,30.3085,-88.1395,27.35,1111122 
DISL,ioos:station:DISL:CATA:1,2014-06-06T23:00:00Z,30.3085,-88.1395,27.56,1111122 
DISL,ioos:station:DISL:CATA:1,2014-06-06T23:30:00Z,30.3085,-88.1395,27.04,1111122 
DISL,ioos:station:DISL:CATA:1,2014-06-07T00:00:00Z,30.3085,-88.1395,27.15,1111122 
DISL,ioos:station:DISL:CATA:1,2014-06-07T00:30:00Z,30.3085,-88.1395,27.42,1111122 
DISL,ioos:station:DISL:CATA:1,2014-06-07T01:00:00Z,30.3085,-88.1395,27.32,1111122 
DISL,ioos:station:DISL:CATA:1,2014-06-07T01:30:00Z,30.3085,-88.1395,27.35,1111122 
DISL,ioos:station:DISL:CATA:1,2014-06-07T02:00:00Z,30.3085,-88.1395,27.08,1111122 
DISL,ioos:station:DISL:CATA:1,2014-06-07T02:30:00Z,30.3085,-88.1395,27.08,1111122 